| time (UTC) | temp F | wind direction | speed MPH | gust MPH | rain 1hr in | rain 24hr in | rain mn in | humidity % | barometer mb |
| 20260506135542 | 74 | 180 | 0.0 | 0.0 | 0.00 | 0.00 | 0.00 | 92 | 1002.4 |
| 20260506134540 | 74 | 180 | 0.0 | 0.0 | 0.00 | 0.00 | 0.00 | 91 | 1002.1 |
| 20260506132539 | 73 | 180 | 0.0 | 0.0 | 0.00 | 0.00 | 0.00 | 91 | 1002.1 |
| 20260506131542 | 72 | 180 | 0.0 | 0.0 | 0.00 | 0.00 | 0.00 | 89 | 1002.1 |
| 20260506125642 | 73 | 180 | 0.0 | 0.0 | 0.00 | 0.00 | 0.00 | 87 | 1001.7 |
| 20260506124642 | 72 | 180 | 0.0 | 0.0 | 0.00 | 0.00 | 0.00 | 87 | 1001.7 |
| 20260506123639 | 72 | 180 | 0.0 | 0.0 | 0.00 | 0.00 | 0.00 | 87 | 1001.7 |
| 20260506122640 | 72 | 180 | 0.0 | 0.0 | 0.00 | 0.00 | 0.00 | 88 | 1002.1 |
| 20260506121644 | 72 | 180 | 0.0 | 0.0 | 0.00 | 0.00 | 0.00 | 88 | 1002.1 |
| 20260506120641 | 72 | 180 | 0.0 | 0.0 | 0.00 | 0.00 | 0.00 | 89 | 1001.7 |
| 20260506120539 | 72 | 180 | 0.0 | 0.0 | 0.00 | 0.00 | 0.00 | 89 | 1001.7 |
| 20260506115539 | 71 | 180 | 0.0 | 0.0 | 0.00 | 0.00 | 0.00 | 90 | 1001.7 |
| 20260506114541 | 72 | 180 | 0.0 | 0.0 | 0.00 | 0.00 | 0.00 | 92 | 1001.7 |
| 20260506113541 | 73 | 180 | 0.0 | 0.0 | 0.00 | 0.00 | 0.00 | 92 | 1001.7 |
| 20260506112542 | 72 | 180 | 0.0 | 0.0 | 0.00 | 0.00 | 0.00 | 91 | 1001.4 |
| 20260506111540 | 73 | 180 | 0.0 | 0.0 | 0.00 | 0.00 | 0.00 | 92 | 1001.7 |
| 20260506110541 | 72 | 180 | 0.0 | 0.0 | 0.00 | 0.00 | 0.00 | 91 | 1001.7 |
| 20260506105639 | 73 | 180 | 0.0 | 0.0 | 0.00 | 0.00 | 0.00 | 92 | 1001.4 |
| 20260506104640 | 73 | 180 | 0.0 | 0.0 | 0.00 | 0.00 | 0.00 | 92 | 1001.4 |
| 20260506102641 | 73 | 180 | 0.0 | 0.0 | 0.00 | 0.00 | 0.00 | 91 | 1001.4 |
| 20260506101740 | 73 | 157 | 0.0 | 0.0 | 0.00 | 0.00 | 0.00 | 91 | 1001.1 |
| 20260506095742 | 73 | 180 | 1.0 | 4.0 | 0.00 | 0.00 | 0.00 | 91 | 1001.1 |
| 20260506094742 | 73 | 177 | 2.0 | 4.0 | 0.00 | 0.00 | 0.00 | 90 | 1000.7 |
| 20260506093840 | 73 | 138 | 0.0 | 2.0 | 0.00 | 0.00 | 0.00 | 90 | 1000.7 |
| 20260506092841 | 73 | 180 | 1.0 | 3.0 | 0.00 | 0.00 | 0.00 | 90 | 1000.7 |
| 20260506091841 | 73 | 168 | 2.0 | 6.0 | 0.00 | 0.00 | 0.00 | 90 | 1000.7 |
| 20260506090842 | 73 | 180 | 0.0 | 0.0 | 0.00 | 0.00 | 0.00 | 90 | 1000.4 |
| 20260506085842 | 73 | 180 | 2.0 | 7.0 | 0.00 | 0.00 | 0.00 | 90 | 1000.4 |
| 20260506084939 | 73 | 180 | 1.0 | 5.0 | 0.00 | 0.00 | 0.00 | 90 | 1000.7 |
| 20260506083940 | 73 | 180 | 1.0 | 5.0 | 0.00 | 0.00 | 0.00 | 91 | 1000.7 |
| 20260506082941 | 73 | 172 | 1.0 | 4.0 | 0.00 | 0.00 | 0.00 | 91 | 1000.7 |
| 20260506081941 | 73 | 110 | 0.0 | 3.0 | 0.00 | 0.00 | 0.00 | 91 | 1000.7 |
| 20260506080940 | 73 | 167 | 1.0 | 3.0 | 0.00 | 0.00 | 0.00 | 92 | 1000.7 |
| 20260506072942 | 73 | 170 | 2.0 | 5.0 | 0.00 | 0.00 | 0.00 | 92 | 1001.1 |
| 20260506071941 | 73 | 158 | 0.0 | 3.0 | 0.00 | 0.00 | 0.00 | 92 | 1001.1 |
| 20260506070939 | 73 | 180 | 0.0 | 2.0 | 0.00 | 0.00 | 0.00 | 93 | 1001.1 |
| 20260506062039 | 73 | 179 | 1.0 | 5.0 | 0.00 | 0.00 | 0.00 | 94 | 1000.7 |
| 20260506061040 | 73 | 180 | 0.0 | 3.0 | 0.00 | 0.00 | 0.00 | 94 | 1000.7 |
| 20260506051139 | 73 | 180 | 3.0 | 5.0 | 0.00 | 0.00 | 0.00 | 94 | 1000.7 |
| 20260506050140 | 74 | 171 | 1.0 | 3.0 | 0.00 | 0.00 | 0.00 | 94 | 1001.1 |
| 20260506044337 | 73 | 157 | 0.0 | 0.0 | 0.00 | 0.00 | 0.00 | 94 | 1001.1 |
| 20260506043340 | 74 | 179 | 2.0 | 8.0 | 0.00 | 0.00 | 0.00 | 95 | 1000.9 |
| 20260506042438 | 74 | 177 | 2.0 | 5.0 | 0.00 | 0.00 | 0.00 | 96 | 1000.7 |
| 20260506041441 | 74 | 180 | 0.0 | 0.0 | 0.00 | 0.00 | 0.00 | 96 | 1000.7 |
| 20260506040439 | 74 | 135 | 2.0 | 5.0 | 0.00 | 0.00 | 0.00 | 96 | 1000.4 |
| 20260506034438 | 74 | 175 | 4.0 | 8.0 | 0.00 | 0.00 | 0.00 | 96 | 1000.4 |
| 20260506033537 | 75 | 157 | 0.0 | 1.0 | 0.00 | 0.00 | 0.00 | 96 | 1000.4 |
| 20260506032539 | 75 | 170 | 0.0 | 1.0 | 0.00 | 0.00 | 0.00 | 96 | 1000.0 |
| 20260506030638 | 75 | 180 | 0.0 | 0.0 | 0.00 | 0.00 | 0.00 | 96 | 1000.0 |
| 20260506025638 | 75 | 135 | 0.0 | 0.0 | 0.00 | 0.00 | 0.00 | 96 | 999.7 |
| 20260506024736 | 75 | 180 | 0.0 | 0.0 | 0.00 | 0.00 | 0.00 | 95 | 999.7 |
| 20260506023739 | 76 | 180 | 1.0 | 5.0 | 0.00 | 0.00 | 0.00 | 95 | 999.4 |
| 20260506022740 | 76 | 180 | 0.0 | 0.0 | 0.00 | 0.00 | 0.00 | 95 | 999.0 |
| 20260506021739 | 76 | 157 | 0.0 | 0.0 | 0.00 | 0.00 | 0.00 | 93 | 998.6 |
| 20260506020736 | 76 | 112 | 0.0 | 0.0 | 0.00 | 0.00 | 0.00 | 93 | 998.6 |
| 20260506015836 | 76 | 112 | 0.0 | 0.0 | 0.00 | 0.00 | 0.00 | 92 | 998.3 |
| 20260506013837 | 77 | 157 | 0.0 | 0.0 | 0.00 | 0.00 | 0.00 | 90 | 998.3 |
| 20260506012840 | 78 | 157 | 0.0 | 2.0 | 0.00 | 0.00 | 0.00 | 89 | 998.3 |
| 20260506011840 | 78 | 180 | 0.0 | 0.0 | 0.00 | 0.00 | 0.00 | 88 | 998.3 |
| 20260506010938 | 78 | 157 | 0.0 | 0.0 | 0.00 | 0.00 | 0.00 | 86 | 997.9 |
| 20260506005938 | 79 | 180 | 0.0 | 0.0 | 0.00 | 0.00 | 0.00 | 85 | 997.9 |
| 20260506004939 | 79 | 157 | 0.0 | 0.0 | 0.00 | 0.00 | 0.00 | 85 | 997.9 |
| 20260506003939 | 79 | 180 | 0.0 | 0.0 | 0.00 | 0.00 | 0.00 | 84 | 997.9 |
| 20260506002938 | 80 | 180 | 0.0 | 0.0 | 0.00 | 0.00 | 0.00 | 83 | 997.9 |
| 20260506001037 | 80 | 162 | 0.0 | 2.0 | 0.00 | 0.00 | 0.00 | 81 | 997.6 |
| 20260506000136 | 80 | 180 | 0.0 | 3.0 | 0.00 | 0.00 | 0.00 | 81 | 997.6 |
| 20260505235138 | 80 | 180 | 2.0 | 5.0 | 0.00 | 0.00 | 0.00 | 81 | 997.3 |
| 20260505234138 | 80 | 180 | 0.0 | 0.0 | 0.00 | 0.00 | 0.00 | 80 | 997.3 |
| 20260505231139 | 81 | 189 | 0.0 | 2.0 | 0.00 | 0.00 | 0.00 | 78 | 997.3 |
| 20260505230237 | 81 | 135 | 0.0 | 0.0 | 0.00 | 0.00 | 0.00 | 78 | 997.3 |
| 20260505225236 | 81 | 180 | 0.0 | 2.0 | 0.00 | 0.00 | 0.00 | 76 | 997.3 |
| 20260505224238 | 81 | 139 | 0.0 | 0.0 | 0.00 | 0.00 | 0.00 | 74 | 997.3 |
| 20260505223237 | 82 | 157 | 1.0 | 2.0 | 0.00 | 0.00 | 0.00 | 71 | 997.3 |
| 20260505215337 | 82 | 180 | 0.0 | 0.0 | 0.00 | 0.00 | 0.00 | 71 | 997.3 |
| 20260505214338 | 84 | 181 | 2.0 | 7.0 | 0.00 | 0.00 | 0.00 | 70 | 997.3 |
| 20260505212440 | 84 | 174 | 1.0 | 3.0 | 0.00 | 0.00 | 0.00 | 71 | 997.3 |
| 20260505210536 | 83 | 175 | 3.0 | 6.0 | 0.00 | 0.00 | 0.00 | 71 | 997.9 |
| 20260505205538 | 83 | 143 | 1.0 | 4.0 | 0.00 | 0.00 | 0.00 | 73 | 997.9 |
| 20260505204538 | 83 | 180 | 0.0 | 4.0 | 0.00 | 0.00 | 0.00 | 74 | 998.3 |
| 20260505203537 | 80 | 162 | 2.0 | 5.0 | 0.00 | 0.00 | 0.00 | 80 | 999.0 |
| 20260505201538 | 81 | 170 | 3.0 | 7.0 | 0.00 | 0.00 | 0.00 | 79 | 999.0 |
| 20260505195637 | 79 | 159 | 0.0 | 3.0 | 0.00 | 0.00 | 0.00 | 82 | 999.4 |
| 20260505194640 | 79 | 171 | 1.0 | 6.0 | 0.00 | 0.00 | 0.00 | 81 | 999.4 |
| 20260505193639 | 78 | 179 | 3.0 | 5.0 | 0.00 | 0.00 | 0.00 | 84 | 999.7 |
| 20260505192636 | 78 | 196 | 2.0 | 8.0 | 0.00 | 0.00 | 0.00 | 84 | 999.7 |
| 20260505191639 | 79 | 169 | 3.0 | 8.0 | 0.00 | 0.00 | 0.00 | 83 | 999.7 |
| 20260505190736 | 79 | 176 | 3.0 | 6.0 | 0.00 | 0.00 | 0.00 | 83 | 999.7 |
| 20260505185739 | 78 | 167 | 3.0 | 9.0 | 0.00 | 0.00 | 0.00 | 86 | 1000.0 |
| 20260505183838 | 78 | 162 | 0.0 | 2.0 | 0.00 | 0.00 | 0.00 | 87 | 1000.4 |
| 20260505182837 | 78 | 180 | 0.0 | 4.0 | 0.00 | 0.00 | 0.00 | 88 | 1000.4 |
| 20260505180838 | 76 | 138 | 2.0 | 4.0 | 0.00 | 0.00 | 0.00 | 92 | 1000.7 |
| 20260505175839 | 75 | 161 | 1.0 | 6.0 | 0.00 | 0.00 | 0.00 | 92 | 1001.1 |
| 20260505174838 | 74 | 137 | 2.0 | 6.0 | 0.00 | 0.00 | 0.00 | 92 | 1001.1 |
| 20260505173837 | 74 | 204 | 1.0 | 3.0 | 0.00 | 0.00 | 0.00 | 94 | 1001.4 |
| 20260505172838 | 74 | 27 | 0.0 | 5.0 | 0.00 | 0.00 | 0.00 | 94 | 1001.4 |
| 20260505171936 | 74 | 142 | 0.0 | 3.0 | 0.00 | 0.00 | 0.00 | 94 | 1001.4 |
| 20260505170939 | 74 | 164 | 2.0 | 5.0 | 0.00 | 0.00 | 0.00 | 94 | 1001.4 |
| 20260505165037 | 74 | 172 | 4.0 | 7.0 | 0.00 | 0.00 | 0.00 | 95 | 1001.4 |
| 20260505164037 | 73 | 180 | 0.0 | 0.0 | 0.00 | 0.00 | 0.00 | 97 | 1001.4 |
| 20260505163136 | 72 | 180 | 1.0 | 5.0 | 0.00 | 0.00 | 0.00 | 97 | 1001.4 |
| 20260505162137 | 71 | 172 | 3.0 | 6.0 | 0.00 | 0.00 | 0.00 | 97 | 1001.7 |
| 20260505161236 | 71 | 104 | 0.0 | 5.0 | 0.00 | 0.00 | 0.00 | 97 | 1002.1 |
| 20260505160238 | 71 | 165 | 3.0 | 5.0 | 0.00 | 0.00 | 0.00 | 97 | 1002.1 |
| 20260505153337 | 70 | 268 | 0.0 | 0.0 | 0.00 | 0.00 | 0.00 | 96 | 1002.1 |
| 20260505152338 | 70 | 176 | 2.0 | 5.0 | 0.00 | 0.00 | 0.00 | 96 | 1001.9 |
| 20260505150337 | 70 | 135 | 0.0 | 2.0 | 0.00 | 0.00 | 0.00 | 94 | 1001.7 |